Location: *
(37.4917°N, 71.5558°E)
Time: 21:10:34
(UTC+00:00)

Cosmos 2237 Rocket - Pass Details

Date: 09 April 2020
Orbit: 833 x 851 km, 71.0° (Epoch: 30 May)

Event Time Altitude Azimuth Distance (km) Brightness Sun altitude
Rises 22:00:31 0° 331° (NNW) 3,410 5.5 -30.3°
Reaches altitude 10° 22:03:02 10° 326° (NW) 2,474 4.7 -30.0°
Enters shadow 22:04:03 15° 322° (NW) 2,110 4.3 -29.8°
